Regional Weather Roundup
Issued by NWS

Home | Current Version | Previous Version | Text Only | Print | Product List | Glossary On
Versions: 1 2 3 4 5 6 7 8 9 10 11 12 13 14 15 16 17 18 19 20 21 22 23 24 25 26 27 28
000
ASUS45 KCYS 270710
RWRWY

WYOMING REGIONAL WEATHER ROUNDUP
NATIONAL WEATHER SERVICE CHEYENNE WY
100 AM MDT FRI APR 27 2018

NOTE:  "FAIR" INDICATES FEW OR NO CLOUDS BELOW 12,000 FEET
WITH NO SIGNIFICANT WEATHER AND/OR OBSTRUCTIONS TO VISIBILITY.

WYZ001-270800-
YELLOWSTONE NATIONAL PARK

CITY           SKY/WX    TMP DP  RH WIND       PRES   REMARKS
LK YELLOWSTONE   N/A     25  19  78 CALM      30.30S
W YELLOWSTONE  NOT AVBL

$$
WYZ002>013-054>058-071-098>099-270800-
NORTHERN WYOMING

CITY           SKY/WX    TMP DP  RH WIND       PRES   REMARKS
JACKSON        FAIR      35  21  56 N6        30.23S WCI  30
CODY           FAIR      44  29  55 CALM      30.18S
GREYBULL       FAIR      44  33  65 SE3       30.15R
WORLAND        FAIR      37  27  67 CALM      30.15S
SHERIDAN       FAIR      37  31  78 CALM      30.13S
BUFFALO        FAIR      48  29  47 W5        30.17S
GILLETTE       FAIR      38  29  70 SW6       30.13S WCI  33
HULETT         FAIR      43  30  61 SW8       30.13S
NEWCASTLE      FAIR      37  28  70 NW3       30.15S

$$
WYZ014>020-022>026-101>103-270800-
CENTRAL WYOMING

CITY           SKY/WX    TMP DP  RH WIND       PRES   REMARKS
BIG PINEY      FAIR      33  11  39 CALM      30.26R
PINEDALE       FAIR      30  23  74 W7        30.27S WCI  23
DUBOIS         FAIR      34  23  64 NW12      30.27S WCI  25
LANDER         FAIR      46  22  38 SW6       30.19R
RIVERTON       FAIR      37  22  54 NW6       30.20S WCI  32
CASPER         FAIR      36  23  59 W10       30.19S WCI  28
DOUGLAS        FAIR      33  25  72 CALM      30.19S

$$
WYZ021-027>030-104>119-270800-
SOUTHERN WYOMING

CITY           SKY/WX    TMP DP  RH WIND       PRES   REMARKS
EVANSTON       FAIR      47  16  29 E10       30.21S
KEMMERER       FAIR      37  21  52 N5        30.24S WCI  34
FORT BRIDGER   FAIR      45  11  25 S9        30.24F
ROCK SPRINGS   FAIR      46  13  26 E9        30.23F
DIXON          FAIR      36  20  51 NE5       30.27S WCI  32
RAWLINS        FAIR      30  17  58 N5        30.25S WCI  25
SARATOGA       FAIR      34  18  51 CALM      30.27S
LARAMIE        FAIR      27  21  78 SW10      30.26F WCI  17
CHEYENNE       FAIR      34  27  75 W9        30.24F WCI  27
TORRINGTON     FAIR      37  30  75 CALM      30.15F
PINE BLUFFS    FAIR      30  27  86 SW6       30.22S WCI  24

$$




USA.gov is the U.S. government's official web portal to all federal, state and local government web resources and services.